Year,Month,Day,Hour,Minute,Value (Times are PST for temperature in C)
2017,07,17,00,00,14.60
2017,07,17,00,01,14.60
2017,07,17,00,02,14.60
2017,07,17,00,03,14.50
2017,07,17,00,04,14.50
2017,07,17,00,05,14.50
2017,07,17,00,06,14.40
2017,07,17,00,07,14.40
2017,07,17,00,08,14.30
2017,07,17,00,09,14.30
2017,07,17,00,10,14.30
2017,07,17,00,11,14.30
2017,07,17,00,12,14.30
2017,07,17,00,13,14.30
2017,07,17,00,14,14.20
2017,07,17,00,15,14.20
2017,07,17,00,16,14.20
2017,07,17,00,17,14.20
2017,07,17,00,18,14.20
2017,07,17,00,19,14.10
2017,07,17,00,20,14.10
2017,07,17,00,21,14.10
2017,07,17,00,22,14.10
2017,07,17,00,23,14.00
2017,07,17,00,24,14.00
2017,07,17,00,25,14.00
2017,07,17,00,26,13.90
2017,07,17,00,27,13.90
2017,07,17,00,28,13.90
2017,07,17,00,29,13.90
2017,07,17,00,30,13.80
2017,07,17,00,31,13.80
2017,07,17,00,32,13.80
2017,07,17,00,33,13.80
2017,07,17,00,34,13.80
2017,07,17,00,35,13.70
2017,07,17,00,36,13.70
2017,07,17,00,37,13.70
2017,07,17,00,38,13.70
2017,07,17,00,39,13.70
2017,07,17,00,40,13.60
2017,07,17,00,41,13.60
2017,07,17,00,42,13.60
2017,07,17,00,43,13.50
2017,07,17,00,44,13.50
2017,07,17,00,45,13.40
2017,07,17,00,46,13.40
2017,07,17,00,47,13.40
2017,07,17,00,48,13.30
2017,07,17,00,49,13.30
2017,07,17,00,50,13.30
2017,07,17,00,51,13.30
2017,07,17,00,52,13.30
2017,07,17,00,53,13.30
2017,07,17,00,54,13.30
2017,07,17,00,55,13.30
2017,07,17,00,56,13.20
2017,07,17,00,57,13.20
2017,07,17,00,58,13.20
2017,07,17,00,59,13.20
2017,07,17,01,00,13.20
2017,07,17,01,01,13.10
2017,07,17,01,02,13.10
2017,07,17,01,03,13.00
2017,07,17,01,04,13.00
2017,07,17,01,05,12.90
2017,07,17,01,06,12.90
2017,07,17,01,07,12.90
2017,07,17,01,08,12.80
2017,07,17,01,09,12.80
2017,07,17,01,10,12.70
2017,07,17,01,11,12.70
2017,07,17,01,12,12.70
2017,07,17,01,13,12.60
2017,07,17,01,14,12.60
2017,07,17,01,15,12.60
2017,07,17,01,16,12.50
2017,07,17,01,17,12.50
2017,07,17,01,18,12.40
2017,07,17,01,19,12.40
2017,07,17,01,20,12.30
2017,07,17,01,21,12.30
2017,07,17,01,22,12.30
2017,07,17,01,23,12.30
2017,07,17,01,24,12.30
2017,07,17,01,25,12.20
2017,07,17,01,26,12.20
2017,07,17,01,27,12.20
2017,07,17,01,28,12.20
2017,07,17,01,29,12.20
2017,07,17,01,30,12.20
2017,07,17,01,31,12.10
2017,07,17,01,32,12.10
2017,07,17,01,33,12.10
2017,07,17,01,34,12.10
2017,07,17,01,35,12.10
2017,07,17,01,36,12.00
2017,07,17,01,37,12.00
2017,07,17,01,38,12.00
2017,07,17,01,39,11.90
2017,07,17,01,40,11.90
2017,07,17,01,41,11.90
2017,07,17,01,42,11.90
2017,07,17,01,43,11.90
2017,07,17,01,44,11.90
2017,07,17,01,45,11.90
2017,07,17,01,46,11.90
2017,07,17,01,47,11.90
2017,07,17,01,48,11.90
2017,07,17,01,49,11.90
2017,07,17,01,50,11.90
2017,07,17,01,51,11.90
2017,07,17,01,52,11.90
2017,07,17,01,53,11.90
2017,07,17,01,54,11.90
2017,07,17,01,55,11.90
2017,07,17,01,56,11.80
2017,07,17,01,57,11.80
2017,07,17,01,58,11.80
2017,07,17,01,59,11.80
2017,07,17,02,00,11.70
2017,07,17,02,01,11.70
2017,07,17,02,02,11.70
2017,07,17,02,03,11.70
2017,07,17,02,04,11.70
2017,07,17,02,05,11.70
2017,07,17,02,06,11.60
2017,07,17,02,07,11.60
2017,07,17,02,08,11.60
2017,07,17,02,09,11.60
2017,07,17,02,10,11.50
2017,07,17,02,11,11.50
2017,07,17,02,12,11.50
2017,07,17,02,13,11.40
2017,07,17,02,14,11.40
2017,07,17,02,15,11.40
2017,07,17,02,16,11.40
2017,07,17,02,17,11.40
2017,07,17,02,18,11.30
2017,07,17,02,19,11.30
2017,07,17,02,20,11.30
2017,07,17,02,21,11.30
2017,07,17,02,22,11.30
2017,07,17,02,23,11.30
2017,07,17,02,24,11.30
2017,07,17,02,25,11.20
2017,07,17,02,26,11.20
2017,07,17,02,27,11.20
2017,07,17,02,28,11.20
2017,07,17,02,29,11.20
2017,07,17,02,30,11.20
2017,07,17,02,31,11.20
2017,07,17,02,32,11.20
2017,07,17,02,33,11.20
2017,07,17,02,34,11.20
2017,07,17,02,35,11.20
2017,07,17,02,36,11.20
2017,07,17,02,37,11.20
2017,07,17,02,38,11.20
2017,07,17,02,39,11.20
2017,07,17,02,40,11.20
2017,07,17,02,41,11.20
2017,07,17,02,42,11.20
2017,07,17,02,43,11.20
2017,07,17,02,44,11.20
2017,07,17,02,45,11.20
2017,07,17,02,46,11.20
2017,07,17,02,47,11.20
2017,07,17,02,48,11.20
2017,07,17,02,49,11.20
2017,07,17,02,50,11.20
2017,07,17,02,51,11.20
2017,07,17,02,52,11.10
2017,07,17,02,53,11.20
2017,07,17,02,54,11.20
2017,07,17,02,55,11.10
2017,07,17,02,56,11.20
2017,07,17,02,57,11.10
2017,07,17,02,58,11.10
2017,07,17,02,59,11.10
2017,07,17,03,00,11.10
2017,07,17,03,01,11.10
2017,07,17,03,02,11.10
2017,07,17,03,03,11.10
2017,07,17,03,04,11.10
2017,07,17,03,05,11.10
2017,07,17,03,06,11.10
2017,07,17,03,07,11.10
2017,07,17,03,08,11.00
2017,07,17,03,09,11.00
2017,07,17,03,10,11.00
2017,07,17,03,11,11.00
2017,07,17,03,12,11.00
2017,07,17,03,13,10.90
2017,07,17,03,14,10.90
2017,07,17,03,15,10.90
2017,07,17,03,16,10.90
2017,07,17,03,17,10.90
2017,07,17,03,18,10.80
2017,07,17,03,19,10.80
2017,07,17,03,20,10.80
2017,07,17,03,21,10.80
2017,07,17,03,22,10.80
2017,07,17,03,23,10.80
2017,07,17,03,24,10.80
2017,07,17,03,25,10.80
2017,07,17,03,26,10.80
2017,07,17,03,27,10.70
2017,07,17,03,28,10.70
2017,07,17,03,29,10.70
2017,07,17,03,30,10.70
2017,07,17,03,31,10.70
2017,07,17,03,32,10.70
2017,07,17,03,33,10.70
2017,07,17,03,34,10.70
2017,07,17,03,35,10.70
2017,07,17,03,36,10.70
2017,07,17,03,37,10.70
2017,07,17,03,38,10.70
2017,07,17,03,39,10.70
2017,07,17,03,40,10.70
2017,07,17,03,41,10.70
2017,07,17,03,42,10.70
2017,07,17,03,43,10.70
2017,07,17,03,44,10.70
2017,07,17,03,45,10.70
2017,07,17,03,46,10.70
2017,07,17,03,47,10.70
2017,07,17,03,48,10.70
2017,07,17,03,49,10.70
2017,07,17,03,50,10.70
2017,07,17,03,51,10.70
2017,07,17,03,52,10.70
2017,07,17,03,53,10.60
2017,07,17,03,54,10.60
2017,07,17,03,55,10.60
2017,07,17,03,56,10.60
2017,07,17,03,57,10.60
2017,07,17,03,58,10.60
2017,07,17,03,59,10.60
2017,07,17,04,00,10.60
2017,07,17,04,01,10.60
2017,07,17,04,02,10.60
2017,07,17,04,03,10.50
2017,07,17,04,04,10.50
2017,07,17,04,05,10.50
2017,07,17,04,06,10.50
2017,07,17,04,07,10.50
2017,07,17,04,08,10.50
2017,07,17,04,09,10.50
2017,07,17,04,10,10.40
2017,07,17,04,11,10.40
2017,07,17,04,12,10.40
2017,07,17,04,13,10.40
2017,07,17,04,14,10.40
2017,07,17,04,15,10.40
2017,07,17,04,16,10.40
2017,07,17,04,17,10.40
2017,07,17,04,18,10.40
2017,07,17,04,19,10.40
2017,07,17,04,20,10.40
2017,07,17,04,21,10.40
2017,07,17,04,22,10.40
2017,07,17,04,23,10.40
2017,07,17,04,24,10.40
2017,07,17,04,25,10.40
2017,07,17,04,26,10.40
2017,07,17,04,27,10.40
2017,07,17,04,28,10.40
2017,07,17,04,29,10.40
2017,07,17,04,30,10.40
2017,07,17,04,31,10.40
2017,07,17,04,32,10.30
2017,07,17,04,33,10.30
2017,07,17,04,34,10.30
2017,07,17,04,35,10.30
2017,07,17,04,36,10.30
2017,07,17,04,37,10.30
2017,07,17,04,38,10.30
2017,07,17,04,39,10.30
2017,07,17,04,40,10.20
2017,07,17,04,41,10.20
2017,07,17,04,42,10.20
2017,07,17,04,43,10.20
2017,07,17,04,44,10.20
2017,07,17,04,45,10.20
2017,07,17,04,46,10.20
2017,07,17,04,47,10.20
2017,07,17,04,48,10.20
2017,07,17,04,49,10.20
2017,07,17,04,50,10.20
2017,07,17,04,51,10.20
2017,07,17,04,52,10.20
2017,07,17,04,53,10.20
2017,07,17,04,54,10.20
2017,07,17,04,55,10.20
2017,07,17,04,56,10.20
2017,07,17,04,57,10.20
2017,07,17,04,58,10.20
2017,07,17,04,59,10.20
2017,07,17,05,00,10.20
2017,07,17,05,01,10.20
2017,07,17,05,02,10.20
2017,07,17,05,03,10.20
2017,07,17,05,04,10.20
2017,07,17,05,05,10.20
2017,07,17,05,06,10.20
2017,07,17,05,07,10.20
2017,07,17,05,08,10.20
2017,07,17,05,09,10.20
2017,07,17,05,10,10.20
2017,07,17,05,11,10.20
2017,07,17,05,12,10.10
2017,07,17,05,13,10.10
2017,07,17,05,14,10.10
2017,07,17,05,15,10.10
2017,07,17,05,16,10.10
2017,07,17,05,17,10.10
2017,07,17,05,18,10.10
2017,07,17,05,19,10.00
2017,07,17,05,20,10.00
2017,07,17,05,21,10.00
2017,07,17,05,22,10.00
2017,07,17,05,23,10.00
2017,07,17,05,24,10.00
2017,07,17,05,25,10.00
2017,07,17,05,26,10.00
2017,07,17,05,27,10.00
2017,07,17,05,28,10.00
2017,07,17,05,29,10.00
2017,07,17,05,30,9.90
2017,07,17,05,31,9.90
2017,07,17,05,32,9.90
2017,07,17,05,33,9.90
2017,07,17,05,34,9.90
2017,07,17,05,35,9.90
2017,07,17,05,36,9.90
2017,07,17,05,37,9.80
2017,07,17,05,38,9.80
2017,07,17,05,39,9.80
2017,07,17,05,40,9.80
2017,07,17,05,41,9.80
2017,07,17,05,42,9.80
2017,07,17,05,43,9.80
2017,07,17,05,44,9.80
2017,07,17,05,45,9.80
2017,07,17,05,46,9.80
2017,07,17,05,47,9.80
2017,07,17,05,48,9.80
2017,07,17,05,49,9.80
2017,07,17,05,50,9.70
2017,07,17,05,51,9.70
2017,07,17,05,52,9.70
2017,07,17,05,53,9.70
2017,07,17,05,54,9.70
2017,07,17,05,55,9.70
2017,07,17,05,56,9.70
2017,07,17,05,57,9.70
2017,07,17,05,58,9.70
2017,07,17,05,59,9.70
2017,07,17,06,00,9.70
2017,07,17,06,01,9.70
2017,07,17,06,02,9.70
2017,07,17,06,03,9.70
2017,07,17,06,04,9.70
2017,07,17,06,05,9.70
2017,07,17,06,06,9.70
2017,07,17,06,07,9.70
2017,07,17,06,08,9.70
2017,07,17,06,09,9.70
2017,07,17,06,10,9.70
2017,07,17,06,11,9.70
2017,07,17,06,12,9.70
2017,07,17,06,13,9.70
2017,07,17,06,14,9.70
2017,07,17,06,15,9.70
2017,07,17,06,16,9.70
2017,07,17,06,17,9.70
2017,07,17,06,18,9.80
2017,07,17,06,19,9.80
2017,07,17,06,20,9.80
2017,07,17,06,21,9.80
2017,07,17,06,22,9.80
2017,07,17,06,23,9.80
2017,07,17,06,24,9.90
2017,07,17,06,25,9.90
2017,07,17,06,26,9.90
2017,07,17,06,27,10.00
2017,07,17,06,28,10.00
2017,07,17,06,29,10.00
2017,07,17,06,30,10.10
2017,07,17,06,31,10.10
2017,07,17,06,32,10.10
2017,07,17,06,33,10.20
2017,07,17,06,34,10.20
2017,07,17,06,35,10.20
2017,07,17,06,36,10.30
2017,07,17,06,37,10.30
2017,07,17,06,38,10.30
2017,07,17,06,39,10.40
2017,07,17,06,40,10.40
2017,07,17,06,41,10.50
2017,07,17,06,42,10.50
2017,07,17,06,43,10.60
2017,07,17,06,44,10.70
2017,07,17,06,45,10.70
2017,07,17,06,46,10.80
2017,07,17,06,47,10.80
2017,07,17,06,48,10.90
2017,07,17,06,49,10.90
2017,07,17,06,50,11.00
2017,07,17,06,51,11.10
2017,07,17,06,52,11.10
2017,07,17,06,53,11.20
2017,07,17,06,54,11.30
2017,07,17,06,55,11.30
2017,07,17,06,56,11.40
2017,07,17,06,57,11.40
2017,07,17,06,58,11.50
2017,07,17,06,59,11.60
2017,07,17,07,00,11.70
2017,07,17,07,01,11.70
2017,07,17,07,02,11.80
2017,07,17,07,03,11.80
2017,07,17,07,04,11.90
2017,07,17,07,05,11.90
2017,07,17,07,06,12.00
2017,07,17,07,07,12.10
2017,07,17,07,08,12.10
2017,07,17,07,09,12.20
2017,07,17,07,10,12.20
2017,07,17,07,11,12.30
2017,07,17,07,12,12.30
2017,07,17,07,13,12.40
2017,07,17,07,14,12.50
2017,07,17,07,15,12.60
2017,07,17,07,16,12.60
2017,07,17,07,17,12.70
2017,07,17,07,18,12.80
2017,07,17,07,19,12.90
2017,07,17,07,20,13.00
2017,07,17,07,21,13.10
2017,07,17,07,22,13.10
2017,07,17,07,23,13.20
2017,07,17,07,24,13.30
2017,07,17,07,25,13.30
2017,07,17,07,26,13.40
2017,07,17,07,27,13.50
2017,07,17,07,28,13.50
2017,07,17,07,29,13.60
2017,07,17,07,30,13.70
2017,07,17,07,31,13.70
2017,07,17,07,32,13.80
2017,07,17,07,33,13.80
2017,07,17,07,34,13.90
2017,07,17,07,35,14.00
2017,07,17,07,36,14.10
2017,07,17,07,37,14.10
2017,07,17,07,38,14.10
2017,07,17,07,39,14.20
2017,07,17,07,40,14.20
2017,07,17,07,41,14.20
2017,07,17,07,42,14.20
2017,07,17,07,43,14.20
2017,07,17,07,44,14.30
2017,07,17,07,45,14.30
2017,07,17,07,46,14.30
2017,07,17,07,47,14.30
2017,07,17,07,48,14.40
2017,07,17,07,49,14.40
2017,07,17,07,50,14.50
2017,07,17,07,51,14.50
2017,07,17,07,52,14.60
2017,07,17,07,53,14.60
2017,07,17,07,54,14.60
2017,07,17,07,55,14.60
2017,07,17,07,56,14.60
2017,07,17,07,57,14.60
2017,07,17,07,58,14.60
2017,07,17,07,59,14.60
2017,07,17,08,00,14.60
2017,07,17,08,01,14.60
2017,07,17,08,02,14.70
2017,07,17,08,03,14.70
2017,07,17,08,04,14.80
2017,07,17,08,05,14.80
2017,07,17,08,06,14.80
2017,07,17,08,07,14.90
2017,07,17,08,08,14.90
2017,07,17,08,09,15.00
2017,07,17,08,10,15.00
2017,07,17,08,11,15.10
2017,07,17,08,12,15.20
2017,07,17,08,13,15.20
2017,07,17,08,14,15.30
2017,07,17,08,15,15.30
2017,07,17,08,16,15.30
2017,07,17,08,17,15.40
2017,07,17,08,18,15.40
2017,07,17,08,19,15.40
2017,07,17,08,20,15.40
2017,07,17,08,21,15.50
2017,07,17,08,22,15.50
2017,07,17,08,23,15.50
2017,07,17,08,24,15.60
2017,07,17,08,25,15.60
2017,07,17,08,26,15.70
2017,07,17,08,27,15.80
2017,07,17,08,28,15.80
2017,07,17,08,29,15.80
2017,07,17,08,30,15.90
2017,07,17,08,31,15.90
2017,07,17,08,32,16.00
2017,07,17,08,33,16.00
2017,07,17,08,34,16.10
2017,07,17,08,35,16.10
2017,07,17,08,36,16.20
2017,07,17,08,37,16.30
2017,07,17,08,38,16.30
2017,07,17,08,39,16.40
2017,07,17,08,40,16.40
2017,07,17,08,41,16.40
2017,07,17,08,42,16.40
2017,07,17,08,43,16.40
2017,07,17,08,44,16.30
2017,07,17,08,45,16.30
2017,07,17,08,46,16.30
2017,07,17,08,47,16.20
2017,07,17,08,48,16.20
2017,07,17,08,49,16.30
2017,07,17,08,50,16.30
2017,07,17,08,51,16.40
2017,07,17,08,52,16.40
2017,07,17,08,53,16.50
2017,07,17,08,54,16.60
2017,07,17,08,55,16.60
2017,07,17,08,56,16.70
2017,07,17,08,57,16.70
2017,07,17,08,58,16.60
2017,07,17,08,59,16.60
2017,07,17,09,00,16.60
2017,07,17,09,01,16.60
2017,07,17,09,02,16.50
2017,07,17,09,03,16.50
2017,07,17,09,04,16.60
2017,07,17,09,05,16.60
2017,07,17,09,06,16.60
2017,07,17,09,07,16.60
2017,07,17,09,08,16.70
2017,07,17,09,09,16.80
2017,07,17,09,10,16.80
2017,07,17,09,11,16.90
2017,07,17,09,12,16.90
2017,07,17,09,13,16.90
2017,07,17,09,14,17.00
2017,07,17,09,15,17.00
2017,07,17,09,16,17.10
2017,07,17,09,17,17.10
2017,07,17,09,18,17.20
2017,07,17,09,19,17.20
2017,07,17,09,20,17.20
2017,07,17,09,21,17.30
2017,07,17,09,22,17.30
2017,07,17,09,23,17.30
2017,07,17,09,24,17.20
2017,07,17,09,25,17.20
2017,07,17,09,26,17.20
2017,07,17,09,27,17.10
2017,07,17,09,28,17.10
2017,07,17,09,29,17.10
2017,07,17,09,30,17.10
2017,07,17,09,31,17.10
2017,07,17,09,32,17.10
2017,07,17,09,33,17.20
2017,07,17,09,34,17.10
2017,07,17,09,35,17.00
2017,07,17,09,36,17.00
2017,07,17,09,37,16.90
2017,07,17,09,38,17.00
2017,07,17,09,39,17.00
2017,07,17,09,40,17.10
2017,07,17,09,41,17.20
2017,07,17,09,42,17.20
2017,07,17,09,43,17.30
2017,07,17,09,44,17.30
2017,07,17,09,45,17.40
2017,07,17,09,46,17.40
2017,07,17,09,47,17.40
2017,07,17,09,48,17.50
2017,07,17,09,49,17.50
2017,07,17,09,50,17.50
2017,07,17,09,51,17.50
2017,07,17,09,52,17.50
2017,07,17,09,53,17.60
2017,07,17,09,54,17.60
2017,07,17,09,55,17.70
2017,07,17,09,56,17.70
2017,07,17,09,57,17.70
2017,07,17,09,58,17.70
2017,07,17,09,59,17.70
2017,07,17,10,00,17.70
2017,07,17,10,01,17.60
2017,07,17,10,02,17.60
2017,07,17,10,03,17.50
2017,07,17,10,04,17.50
2017,07,17,10,05,17.50
2017,07,17,10,06,17.50
2017,07,17,10,07,17.60
2017,07,17,10,08,17.60
2017,07,17,10,09,17.70
2017,07,17,10,10,17.70
2017,07,17,10,11,17.80
2017,07,17,10,12,17.80
2017,07,17,10,13,17.80
2017,07,17,10,14,17.80
2017,07,17,10,15,17.90
2017,07,17,10,16,17.90
2017,07,17,10,17,18.00
2017,07,17,10,18,18.00
2017,07,17,10,19,18.10
2017,07,17,10,20,18.10
2017,07,17,10,21,18.20
2017,07,17,10,22,18.20
2017,07,17,10,23,18.20
2017,07,17,10,24,18.20
2017,07,17,10,25,18.20
2017,07,17,10,26,18.20
2017,07,17,10,27,18.10
2017,07,17,10,28,18.10
2017,07,17,10,29,18.20
2017,07,17,10,30,18.10
2017,07,17,10,31,18.20
2017,07,17,10,32,18.30
2017,07,17,10,33,18.30
2017,07,17,10,34,18.30
2017,07,17,10,35,18.20
2017,07,17,10,36,18.20
2017,07,17,10,37,18.10
2017,07,17,10,38,18.00
2017,07,17,10,39,17.90
2017,07,17,10,40,17.90
2017,07,17,10,41,17.80
2017,07,17,10,42,17.80
2017,07,17,10,43,17.80
2017,07,17,10,44,17.80
2017,07,17,10,45,17.80
2017,07,17,10,46,17.80
2017,07,17,10,47,17.80
2017,07,17,10,48,17.90
2017,07,17,10,49,17.90
2017,07,17,10,50,18.00
2017,07,17,10,51,18.00
2017,07,17,10,52,18.10
2017,07,17,10,53,18.30
2017,07,17,10,54,18.40
2017,07,17,10,55,18.40
2017,07,17,10,56,18.40
2017,07,17,10,57,18.40
2017,07,17,10,58,18.50
2017,07,17,10,59,18.50
2017,07,17,11,00,18.60
2017,07,17,11,01,18.70
2017,07,17,11,02,18.70
2017,07,17,11,03,18.70
2017,07,17,11,04,18.60
2017,07,17,11,05,18.50
2017,07,17,11,06,18.50
2017,07,17,11,07,18.40
2017,07,17,11,08,18.40
2017,07,17,11,09,18.40
2017,07,17,11,10,18.40
2017,07,17,11,11,18.40
2017,07,17,11,12,18.30
2017,07,17,11,13,18.30
2017,07,17,11,14,18.20
2017,07,17,11,15,18.20
2017,07,17,11,16,18.10
2017,07,17,11,17,18.10
2017,07,17,11,18,18.10
2017,07,17,11,19,18.20
2017,07,17,11,20,18.20
2017,07,17,11,21,18.30
2017,07,17,11,22,18.40
2017,07,17,11,23,18.40
2017,07,17,11,24,18.40
2017,07,17,11,25,18.40
2017,07,17,11,26,18.50
2017,07,17,11,27,18.50
2017,07,17,11,28,18.50
2017,07,17,11,29,18.40
2017,07,17,11,30,18.40
2017,07,17,11,31,18.30
2017,07,17,11,32,18.30
2017,07,17,11,33,18.30
2017,07,17,11,34,18.40
2017,07,17,11,35,18.40
2017,07,17,11,36,18.40
2017,07,17,11,37,18.40
2017,07,17,11,38,18.30
2017,07,17,11,39,18.30
2017,07,17,11,40,18.20
2017,07,17,11,41,18.20
2017,07,17,11,42,18.20
2017,07,17,11,43,18.20
2017,07,17,11,44,18.20
2017,07,17,11,45,18.20
2017,07,17,11,46,18.20
2017,07,17,11,47,18.20
2017,07,17,11,48,18.10
2017,07,17,11,49,18.10
2017,07,17,11,50,18.10
2017,07,17,11,51,18.00
2017,07,17,11,52,18.00
2017,07,17,11,53,18.10
2017,07,17,11,54,18.10
2017,07,17,11,55,18.10
2017,07,17,11,56,18.20
2017,07,17,11,57,18.20
2017,07,17,11,58,18.30
2017,07,17,11,59,18.40
2017,07,17,12,00,18.50
2017,07,17,12,01,18.60
2017,07,17,12,02,18.70
2017,07,17,12,03,18.80
2017,07,17,12,04,18.80
2017,07,17,12,05,18.90
2017,07,17,12,06,18.90
2017,07,17,12,07,18.90
2017,07,17,12,08,18.90
2017,07,17,12,09,18.90
2017,07,17,12,10,19.00
2017,07,17,12,11,19.00
2017,07,17,12,12,19.10
2017,07,17,12,13,19.10
2017,07,17,12,14,19.10
2017,07,17,12,15,19.20
2017,07,17,12,16,19.20
2017,07,17,12,17,19.20
2017,07,17,12,18,19.20
2017,07,17,12,19,19.10
2017,07,17,12,20,19.00
2017,07,17,12,21,19.00
2017,07,17,12,22,18.90
2017,07,17,12,23,19.00
2017,07,17,12,24,19.00
2017,07,17,12,25,19.00
2017,07,17,12,26,18.80
2017,07,17,12,27,18.70
2017,07,17,12,28,18.70
2017,07,17,12,29,18.70
2017,07,17,12,30,18.70
2017,07,17,12,31,18.70
2017,07,17,12,32,18.80
2017,07,17,12,33,18.80
2017,07,17,12,34,18.90
2017,07,17,12,35,19.00
2017,07,17,12,36,19.10
2017,07,17,12,37,19.10
2017,07,17,12,38,19.00
2017,07,17,12,39,19.00
2017,07,17,12,40,19.00
2017,07,17,12,41,19.10
2017,07,17,12,42,19.10
2017,07,17,12,43,19.10
2017,07,17,12,44,19.00
2017,07,17,12,45,19.00
2017,07,17,12,46,19.00
2017,07,17,12,47,19.00
2017,07,17,12,48,19.10
2017,07,17,12,49,19.20
2017,07,17,12,50,19.20
2017,07,17,12,51,19.30
2017,07,17,12,52,19.30
2017,07,17,12,53,19.40
2017,07,17,12,54,19.40
2017,07,17,12,55,19.30
2017,07,17,12,56,19.20
2017,07,17,12,57,19.10
2017,07,17,12,58,19.10
2017,07,17,12,59,19.00
2017,07,17,13,00,18.90
2017,07,17,13,01,18.80
2017,07,17,13,02,18.80
2017,07,17,13,03,18.70
2017,07,17,13,04,18.60
2017,07,17,13,05,18.60
2017,07,17,13,06,18.60
2017,07,17,13,07,18.70
2017,07,17,13,08,18.70
2017,07,17,13,09,18.90
2017,07,17,13,10,19.00
2017,07,17,13,11,19.10
2017,07,17,13,12,19.10
2017,07,17,13,13,19.10
2017,07,17,13,14,19.20
2017,07,17,13,15,19.20
2017,07,17,13,16,19.20
2017,07,17,13,17,19.20
2017,07,17,13,18,19.20
2017,07,17,13,19,19.10
2017,07,17,13,20,19.10
2017,07,17,13,21,19.00
2017,07,17,13,22,18.90
2017,07,17,13,23,18.80
2017,07,17,13,24,18.80
2017,07,17,13,25,18.80
2017,07,17,13,26,18.80
2017,07,17,13,27,18.80
2017,07,17,13,28,18.90
2017,07,17,13,29,18.90
2017,07,17,13,30,19.00
2017,07,17,13,31,19.00
2017,07,17,13,32,19.00
2017,07,17,13,33,18.90
2017,07,17,13,34,18.90
2017,07,17,13,35,18.90
2017,07,17,13,36,18.90
2017,07,17,13,37,19.00
2017,07,17,13,38,19.00
2017,07,17,13,39,19.10
2017,07,17,13,40,19.20
2017,07,17,13,41,19.30
2017,07,17,13,42,19.40
2017,07,17,13,43,19.50
2017,07,17,13,44,19.60
2017,07,17,13,45,19.60
2017,07,17,13,46,19.70
2017,07,17,13,47,19.80
2017,07,17,13,48,19.90
2017,07,17,13,49,20.00
2017,07,17,13,50,20.00
2017,07,17,13,51,20.10
2017,07,17,13,52,20.10
2017,07,17,13,53,20.10
2017,07,17,13,54,20.00
2017,07,17,13,55,20.00
2017,07,17,13,56,20.00
2017,07,17,13,57,19.90
2017,07,17,13,58,19.80
2017,07,17,13,59,19.70
2017,07,17,14,00,19.70
2017,07,17,14,01,19.70
2017,07,17,14,02,19.70
2017,07,17,14,03,19.80
2017,07,17,14,04,19.90
2017,07,17,14,05,20.00
2017,07,17,14,06,20.10
2017,07,17,14,07,20.20
2017,07,17,14,08,20.20
2017,07,17,14,09,20.30
2017,07,17,14,10,20.30
2017,07,17,14,11,20.40
2017,07,17,14,12,20.50
2017,07,17,14,13,20.60
2017,07,17,14,14,20.60
2017,07,17,14,15,20.50
2017,07,17,14,16,20.40
2017,07,17,14,17,20.30
2017,07,17,14,18,20.30
2017,07,17,14,19,20.20
2017,07,17,14,20,20.20
2017,07,17,14,21,20.20
2017,07,17,14,22,20.30
2017,07,17,14,23,20.30
2017,07,17,14,24,20.40
2017,07,17,14,25,20.50
2017,07,17,14,26,20.60
2017,07,17,14,27,20.70
2017,07,17,14,28,20.80
2017,07,17,14,29,20.90
2017,07,17,14,30,21.10
2017,07,17,14,31,21.20
2017,07,17,14,32,21.30
2017,07,17,14,33,21.30
2017,07,17,14,34,21.30
2017,07,17,14,35,21.30
2017,07,17,14,36,21.20
2017,07,17,14,37,21.10
2017,07,17,14,38,21.10
2017,07,17,14,39,21.00
2017,07,17,14,40,21.00
2017,07,17,14,41,21.00
2017,07,17,14,42,21.00
2017,07,17,14,43,21.00
2017,07,17,14,44,21.10
2017,07,17,14,45,21.20
2017,07,17,14,46,21.20
2017,07,17,14,47,21.30
2017,07,17,14,48,21.30
2017,07,17,14,49,21.40
2017,07,17,14,50,21.40
2017,07,17,14,51,21.50
2017,07,17,14,52,21.60
2017,07,17,14,53,21.70
2017,07,17,14,54,21.80
2017,07,17,14,55,21.80
2017,07,17,14,56,21.80
2017,07,17,14,57,21.80
2017,07,17,14,58,21.80
2017,07,17,14,59,21.80
2017,07,17,15,00,21.80
2017,07,17,15,01,21.70
2017,07,17,15,02,21.70
2017,07,17,15,03,21.60
2017,07,17,15,04,21.70
2017,07,17,15,05,21.70
2017,07,17,15,06,21.70
2017,07,17,15,07,21.70
2017,07,17,15,08,21.80
2017,07,17,15,09,21.80
2017,07,17,15,10,21.90
2017,07,17,15,11,22.00
2017,07,17,15,12,22.00
2017,07,17,15,13,22.10
2017,07,17,15,14,22.10
2017,07,17,15,15,22.20
2017,07,17,15,16,22.20
2017,07,17,15,17,22.20
2017,07,17,15,18,22.20
2017,07,17,15,19,22.20
2017,07,17,15,20,22.20
2017,07,17,15,21,22.20
2017,07,17,15,22,22.20
2017,07,17,15,23,22.10
2017,07,17,15,24,22.10
2017,07,17,15,25,22.00
2017,07,17,15,26,22.10
2017,07,17,15,27,22.10
2017,07,17,15,28,22.10
2017,07,17,15,29,22.20
2017,07,17,15,30,22.20
2017,07,17,15,31,22.20
2017,07,17,15,32,22.20
2017,07,17,15,33,22.30
2017,07,17,15,34,22.30
2017,07,17,15,35,22.40
2017,07,17,15,36,22.40
2017,07,17,15,37,22.40
2017,07,17,15,38,22.40
2017,07,17,15,39,22.40
2017,07,17,15,40,22.40
2017,07,17,15,41,22.40
2017,07,17,15,42,22.40
2017,07,17,15,43,22.40
2017,07,17,15,44,22.50
2017,07,17,15,45,22.50
2017,07,17,15,46,22.60
2017,07,17,15,47,22.70
2017,07,17,15,48,22.70
2017,07,17,15,49,22.80
2017,07,17,15,50,22.80
2017,07,17,15,51,22.70
2017,07,17,15,52,22.60
2017,07,17,15,53,22.50
2017,07,17,15,54,22.40
2017,07,17,15,55,22.40
2017,07,17,15,56,22.30
2017,07,17,15,57,22.30
2017,07,17,15,58,22.20
2017,07,17,15,59,22.20
2017,07,17,16,00,22.30
2017,07,17,16,01,22.30
2017,07,17,16,02,22.30
2017,07,17,16,03,22.30
2017,07,17,16,04,22.30
2017,07,17,16,05,22.30
2017,07,17,16,06,22.30
2017,07,17,16,07,22.30
2017,07,17,16,08,22.30
2017,07,17,16,09,22.30
2017,07,17,16,10,22.30
2017,07,17,16,11,22.30
2017,07,17,16,12,22.30
2017,07,17,16,13,22.20
2017,07,17,16,14,22.20
2017,07,17,16,15,22.30
2017,07,17,16,16,22.30
2017,07,17,16,17,22.40
2017,07,17,16,18,22.50
2017,07,17,16,19,22.50
2017,07,17,16,20,22.60
2017,07,17,16,21,22.70
2017,07,17,16,22,22.70
2017,07,17,16,23,22.80
2017,07,17,16,24,22.90
2017,07,17,16,25,22.90
2017,07,17,16,26,23.00
2017,07,17,16,27,23.10
2017,07,17,16,28,23.20
2017,07,17,16,29,23.20
2017,07,17,16,30,23.20
2017,07,17,16,31,23.20
2017,07,17,16,32,23.20
2017,07,17,16,33,23.20
2017,07,17,16,34,23.20
2017,07,17,16,35,23.30
2017,07,17,16,36,23.40
2017,07,17,16,37,23.60
2017,07,17,16,38,23.70
2017,07,17,16,39,23.70
2017,07,17,16,40,23.80
2017,07,17,16,41,23.80
2017,07,17,16,42,23.90
2017,07,17,16,43,23.90
2017,07,17,16,44,23.90
2017,07,17,16,45,24.00
2017,07,17,16,46,24.00
2017,07,17,16,47,23.90
2017,07,17,16,48,23.90
2017,07,17,16,49,23.80
2017,07,17,16,50,23.80
2017,07,17,16,51,23.80
2017,07,17,16,52,23.70
2017,07,17,16,53,23.70
2017,07,17,16,54,23.60
2017,07,17,16,55,23.60
2017,07,17,16,56,23.70
2017,07,17,16,57,23.70
2017,07,17,16,58,23.80
2017,07,17,16,59,23.80
2017,07,17,17,00,23.80
2017,07,17,17,01,23.70
2017,07,17,17,02,23.70
2017,07,17,17,03,23.70
2017,07,17,17,04,23.80
2017,07,17,17,05,23.80
2017,07,17,17,06,23.90
2017,07,17,17,07,24.00
2017,07,17,17,08,24.00
2017,07,17,17,09,24.10
2017,07,17,17,10,24.10
2017,07,17,17,11,24.20
2017,07,17,17,12,24.30
2017,07,17,17,13,24.30
2017,07,17,17,14,24.30
2017,07,17,17,15,24.30
2017,07,17,17,16,24.30
2017,07,17,17,17,24.30
2017,07,17,17,18,24.30
2017,07,17,17,19,24.30
2017,07,17,17,20,24.30
2017,07,17,17,21,24.30